Погода Новая Ушица

Погода Новая Ушица : погода сейчас, прогноз погоды и архив. Всё, что Вы хотите узнать о погоде Новая Ушица!

Поиск расширенной информации на нашем сайте:

Другие новости

Новости СМИ2

Главная страница сайта

Новости сайта

03.07.2017

Напоминаем, что на нашем специализированном сайте Метеоцентр.Азия вы можете получить высокодетализированные автоматические прогнозы погоды по пунктам России, СНГ и мира в авиационном формате (включающие направление и скорость ветра, видимость, явления погоды, количество и форму облачности, нижнюю и верхнюю границу облачности).

Рекомендуем: Подробная информация Ремонт автогрейдера ДЗ-98 у нас.

Погода Новая Ушица - сегодня

Время (UTC), дата Ветер
(°,м/с) 
Видим.   Явления Облачность Т
(°С)
Тd
(°С)
f(%) Тe
(°С)
Pmin
(гПа)
dP
(гПа)
Po
(мм)
O2
(г/м3)
Тmin Tmax R s Состояние
почвы
21 14.07.17 тихо ()   н/о    8/0 верхняя 
[Ci fib]
+12.5 +8.3 76 +13  1014.5  0.1  735  281           
09 15.07.17 тихо ()   н/о    9/3 1000 м средняя, верхняя 
[Cu hum|Ac trans|Ci sp]
+20 +7.2 43 +20  1014  0.1  735  274           
15 15.07.17 тихо ()   н/о    8/3 600 м средняя, верхняя 
[Cu hum|Ac trans|Ci fib]
+21.4 +7.7 41 +21  1013.7  0.2  735  273           
21 15.07.17 230 (ЮЗ) н/о    6/0 верхняя 
[Ci fib]
+13.7 +11.5 87 +18  1016.5  0.3  736  279           
09 16.07.17 310 (СЗ) н/о    8/5 600 м средняя 
[Cu hum|Ac trans]
+20.3 +9.8 51 +22  1019.1  0.4  739  275           
15 16.07.17 350 (С) н/о    6/4 600 м кучево-дожд., средняя 
[Cb calv|Ac trans]
+22.5 +9.7 44 +24  1018.6  -0.1  739  273           
21 16.07.17 270 (З) н/о    ясно 
+12.9 +10 83 +15  1021.3  0.4  740  282           
09 17.07.17 280 (З) 55000 м    4/4 1000 м 
[Cu hum]
+22.8 +7.9 38 +23  1021.1  -0.3  741  274           
15 17.07.17 290 (З) н/о    4/4 600 м 
[Cu hum]
+24.8 +5.2 28 +25  1018.9  -0.7  739  271           
21 17.07.17 тихо ()   н/о    ясно 
+14.3 +9.5 73 +15  1021.3  0.5  740  281           
09 18.07.17 250 (З) 35000 м    8/6 600 м средняя 
[Cu med, cong|Ac trans]
+24.2 +12.9 49 +30  1020.6  -0.3  740  271           
15 18.07.17 050 (СВ) н/о    8/6 600 м кучево-дожд., средняя 
[Cb calv|Ac cuf]
+24.3 +14.2 53 +32  1018.5  -1  739  270           
21 18.07.17 тихо ()   н/о    ясно 
+17.4 +12.4 72 +22  1020.3  0.4  740  277           
09 19.07.17 150 (ЮВ) н/о    6/4 600 м верхняя 
[Cu med, cong|Ci fib]
+26 +13.5 46 +33  1018.9  -0.8  739  269           
15 19.07.17 270 (З) н/о    8/3 1000 м верхняя 
[Cu hum|Ci fib]
+28.4 +12.5 37 +34  1015.8  -1.3  737  266           
21 19.07.17 тихо ()   н/о    4/1 600 м кучево-дожд., верхняя 
[Cb calv|Ci fib]
+18.5 +14.2 76 +26  1016.9  -0.1  737  274           
09 20.07.17 180 (Ю) 60000 м    3/0 верхняя 
[Ci fib]
+27.6 +11.8 37 +32  1013.7  -0.7  736  266           
15 20.07.17 230 (ЮЗ) н/о    8/5 600 м средняя, верхняя 
[Cu hum|Ac trans|Ci fib]
+29.7 +12.6 35 +35  1011  -1.2  734  264           
21 20.07.17 200 (Ю) н/о    ясно 
+20.9 +13.7 63 +28  1012.8  0.8  734  271           
09 21.07.17 180 (Ю) н/о    4/0 верхняя 
[Ci fib]
+28.7 +15.5 45 +39  1013  0.3  735  264           
15 21.07.17 170 (Ю) н/о    8/4 600 м верхняя 
[Cu hum|Ci fib]
+31.3 +13.5 34 +38  1011.3  -0.8  734  262           
21 21.07.17 170 (Ю) н/о    3/0 верхняя 
[Ci fib]
+23.8 +14.6 56 +32  1012.5  0.3  734  268           
09 22.07.17 320 (СЗ) 27000 м    9/6 600 м средняя 
[Sc|Ac und]
+24 +17.3 66 +38  1014.5  0.7  736  268           
15 22.07.17 330 (СЗ) 45000 м    6/4 600 м средняя 
[Cu med, cong|Ac cuf]
+26.6 +16.7 55 +39  1013.8  -0.1  736  266           
21 22.07.17 310 (СЗ) н/о    ясно 
+18.4 +16.1 86 +30  1016.6  1.2  737  274           
Время (UTC), дата Ветер
(°,м/с) 
Видим.   Явления Облачность Т
(°С)
Тd
(°С)
f(%) Тe
(°С)
Pmin
(гПа)
dP
(гПа)
Po
(мм)
O2
(г/м3)
Тmin Tmax R s Состояние
почвы

Для получения пояснительной информации подведите курсор к названию столбца.

ПОГОДА Новая Ушица - архив

Всё, что Вы хотите узнать о погоде Новая Ушица - удобно и подробно!

Выберите нужную дату (начиная с 1 января 2015* года) и нажмите кнопку "Найти".
Будут отображены архивные сводки погоды по пункту Новая Ушица, начиная с указанной даты.


Отображать данные в формате CSV (для использования в таблицах Excel)


Внимание! Наш архив погоды предназначен исключительно для личного некоммерческого использования в познавательных целях. Если Вам необходимы официальные справки о состоянии погоды (для производственных, юридических, коммерческих и т.п. целей), обращайтесь в органы Росгидромета.

*Примечание: данная дата относится к архиву по метеостанциям СССР (Россия, СНГ, Балтия).
Архив по метеостанциям Зарубежной Европы и Азии (кроме Китая) хранится 10 дней, по другим регионам земного шара (Китай, Африка, Америка, Австралия, Океания) - 1 день.

Новая Ушица - район местоположения метеостанции


Название, широта, долгота, высота метеостанции:
Новая Ушица 48.9°ш. 27.3°д. 290 м над ур. моря [Украина]

Дополнительная информация

В oтличие oт бoльшинства пoгoдных сайтoв мы публикуем пoдрoбную метеoинфoрмацию в детальнoм прoфессиoнальнoм фoрмате.

Характеристики температуры и влажнoсти вoздуха измеряются на высoте 2 м в тени вдали oт зданий и деревьев.
Скoрoсть ветра измеряется на высoте 10 м (на урoвне рoста челoвека скoрoсть ветра ниже в 1.5-2 раза). Если метеoстанция нахoдится в гoрoде или в лесу, тo скoрoсть ветра занижена на 2-4 м/с пo сравнению с oткрытым местoм. Скoрoсть ветра над акватoриями крупных рек и oзёр, а также на вершинах хoлмoв на 2-5 м/с выше, чем в oбычных услoвиях.
Атмoсфернoе давление в разных тoчках местнoсти мoжет значительнo oтличаться oт давления на метеoстанции, в зависимoсти oт услoвий рельефа (при пoдъёме на 10 м давление пoнижается примернo на 1 мм рт.ст.).